Terminal Aerodrome Forecast
Issued by NWS Atlanta, GA

Home | Current Version | Previous Version | Text Only | Print | Product List | Glossary On
Versions: 1 2 3 4 5 6 7 8 9 10 11 12 13 14 15 16 17 18 19 20 21 22 23 24 25 26 27 28 29 30 31 32 33 34 35 36 37 38 39 40 41 42
000
FTAK31 PAJN 211600 AAA
TAFAHN
TAF AMD
PAHN 211621Z 2116/2212 VRB04KT P6SM SCT005 BKN100
      TEMPO 2116/2118 BKN007
     FM211800 31007KT P6SM SCT018 BKN060
     FM212100 31011KT P6SM SCT025 BKN050
     FM220300 31008KT P6SM VCSH BKN050 OVC100
     FM220700 33005KT P6SM -RA BKN040 OVC080
      AMD LTD TO CLD VIS AND WIND=

USA.gov is the U.S. government's official web portal to all federal, state and local government web resources and services.